Location: Ch�teau-Arnoux
(44.0814°N, 6.0027°E)
Time: 21:10:10
(UTC+00:00)

Helios 1A Rocket - Pass Details

Date: 15 November 2019
Orbit: 563 x 588 km, 98.3° (Epoch: 09 December)

Event Time Altitude Azimuth Distance (km) Brightness Sun altitude
Rises 05:13:55 0° 13° (NNE) 2,811 6.4 -13.8°
Reaches altitude 10° 05:16:05 10° 13° (NNE) 1,903 5.6 -13.5°
Maximum altitude 05:20:13 88° 285° (WNW) 583 2.9 -12.7°
Drops below altitude 10° 05:24:16 10° 196° (SSW) 1,873 5.5 -12.0°
Sets 05:26:24 0° 196° (SSW) 2,762 6.4 -11.7°
